This demonstration page uses our WeatherBlox Daily Observations layout. Learn more.

Left ArrowRight Arrow

40.92945, -100.16068

Hourly Observations for February 7, 2020

Temp ( °F °C ) Dew Point ( °F °C ) Humidity (%) Winds ( mph kmh ) Pressure ( in mb ) Visibility ( mi km ) Precip ( " mm )
12:15 am 00:15 Mostly Cloudy 31 -0.8 28 -2.5 88 88 N 8 13 29.76 1008 10 16 N/A
12:35 am 00:35 Cloudy 31 -0.5 28 -2 90 90 N 6 9 29.77 1008 10 16 N/A
12:55 am 00:55 Cloudy 32 undefined 29 -1.9 87 87 N 9 15 29.77 1008 10 16 N/A
1:15 am 01:15 Cloudy 32 undefined 29 -1.7 88 88 N 8 13 29.77 1008 10 16 N/A
1:35 am 01:35 Cloudy 32 undefined 29 -1.5 90 90 NW 7 11 29.78 1008 10 16 N/A
1:55 am 01:55 Cloudy 32 undefined 29 -1.6 89 89 NNW 7 11 29.78 1008 10 16 N/A
2:15 am 02:15 Cloudy 32 undefined 29 -1.9 87 87 NNW 13 20 29.79 1009 10 16 N/A
2:35 am 02:35 Mostly Cloudy 31 -0.8 27 -2.9 86 86 NNW 9 15 29.79 1009 10 16 N/A
2:55 am 02:55 Cloudy 31 -0.6 27 -2.7 86 86 NW 7 11 29.80 1009 10 16 N/A
3:15 am 03:15 Cloudy 31 -0.7 27 -2.6 87 87 NNW 7 11 29.80 1009 10 16 N/A
3:35 am 03:35 Cloudy 30 -1 27 -2.6 89 89 NW 6 9 29.81 1009 10 16 N/A
3:55 am 03:55 Cloudy 30 -1.1 27 -2.6 90 90 NW 8 13 29.82 1010 10 16 N/A
4:15 am 04:15 Cloudy 30 -0.9 27 -2.6 88 88 NW 10 17 29.81 1010 10 16 N/A
4:35 am 04:35 Cloudy 31 -0.7 28 -2.4 88 88 NNW 10 17 29.81 1010 10 16 N/A
4:55 am 04:55 Cloudy with Light Snow 30 -1 28 -2.2 92 92 NNW 9 15 29.83 1010 4 6 N/A
5:15 am 05:15 Cloudy 29 -1.5 28 -2.5 93 93 NNW 9 15 29.84 1011 10 16 N/A
5:35 am 05:35 Cloudy 30 -1.2 28 -2.2 93 93 NNW 7 11 29.84 1010 10 16 N/A
5:55 am 05:55 Cloudy 30 -1.1 28 -2.5 90 90 NNW 8 13 29.85 1011 10 16 N/A
6:15 am 06:15 Cloudy 30 -1.3 27 -2.6 91 91 NNW 7 11 29.86 1011 10 16 N/A
6:35 am 06:35 Cloudy 30 -1 28 -2.5 90 90 NNW 7 11 29.86 1011 10 16 N/A
6:55 am 06:55 Cloudy 29 -1.7 27 -3 91 91 N 6 9 29.87 1012 10 16 N/A
7:15 am 07:15 Cloudy 29 -1.6 27 -2.8 92 92 NNW 3 6 29.88 1012 10 16 N/A
7:35 am 07:35 Cloudy 29 -1.6 27 -2.6 93 93 NNW 3 6 29.89 1012 10 16 N/A
7:55 am 07:55 Cloudy 30 -1.3 27 -2.7 90 90 N 3 6 29.90 1012 10 16 N/A
8:15 am 08:15 Cloudy 30 -1.3 26 -3.1 88 88 NNW 7 11 29.90 1012 10 16 N/A
8:35 am 08:35 Cloudy 29 -1.4 26 -3.4 86 86 N 8 13 29.92 1013 10 16 N/A
8:55 am 08:55 Cloudy 29 -1.5 26 -3.5 86 86 N 5 7 29.92 1013 10 16 N/A
9:15 am 09:15 Cloudy 29 -1.5 26 -3.2 88 88 N 5 7 29.93 1014 10 16 N/A
9:35 am 09:35 Cloudy 29 -1.4 26 -3.4 86 86 N 6 9 29.94 1014 10 16 N/A
9:55 am 09:55 Cloudy 29 -1.5 26 -3.5 86 86 N 7 11 29.94 1014 10 16 N/A
10:15 am 10:15 Cloudy 30 -1 26 -3.3 85 85 N 7 11 29.94 1014 10 16 N/A
10:35 am 10:35 Mostly Cloudy 31 -0.7 25 -3.7 80 80 NW 5 7 29.94 1014 10 16 N/A
10:55 am 10:55 Cloudy 31 -0.7 25 -4 79 79 N 9 15 29.95 1014 10 16 N/A
11:15 am 11:15 Cloudy 32 -0.1 25 -3.8 76 76 NNW 8 13 29.95 1014 10 16 N/A
11:35 am 11:35 Cloudy with Light Snow 32 -0.2 25 -4 76 76 NNW 10 17 29.95 1014 5 8 N/A
11:55 am 11:55 Cloudy with Light Snow 32 -0.1 26 -3.6 78 78 NNW 12 19 29.95 1014 10 16 N/A
12:15 pm 12:15 Cloudy 32 undefined 25 -3.9 75 75 N 9 15 29.95 1014 10 16 N/A
12:35 pm 12:35 Cloudy 32 undefined 25 -3.8 76 76 N 10 17 29.95 1014 10 16 N/A
12:55 pm 12:55 Cloudy 32 0.1 26 -3.6 76 76 NNW 12 19 29.96 1014 10 16 N/A
1:15 pm 13:15 Cloudy 33 0.4 26 -3.6 75 75 NNW 10 17 29.94 1014 10 16 N/A
1:35 pm 13:35 Cloudy 33 0.7 26 -3.5 74 74 NNW 12 19 29.94 1014 10 16 N/A
1:55 pm 13:55 Cloudy 35 1.5 26 -3.4 70 70 NNW 16 26 29.93 1014 10 16 N/A
2:15 pm 14:15 Cloudy 35 1.7 26 -3.3 70 70 NW 16 26 29.93 1014 10 16 N/A
2:35 pm 14:35 Cloudy 36 2.3 26 -3.1 68 68 NNW 16 26 29.93 1014 10 16 N/A
2:55 pm 14:55 Cloudy 35 1.8 26 -3.6 68 68 NW 16 26 29.95 1014 10 16 N/A
3:15 pm 15:15 Cloudy 35 1.6 26 -3.5 69 69 NNW 14 22 29.95 1014 10 16 N/A
3:35 pm 15:35 Cloudy 35 1.4 26 -3.6 70 70 N 9 15 29.96 1015 10 16 N/A
3:55 pm 15:55 Cloudy 34 1.1 26 -3.6 71 71 N 9 15 29.98 1015 10 16 N/A
4:15 pm 16:15 Cloudy 34 1 25 -3.7 71 71 N 13 20 29.98 1015 10 16 N/A
4:35 pm 16:35 Cloudy 33 0.7 25 -3.9 72 72 N 12 19 29.99 1016 10 16 N/A
4:55 pm 16:55 Cloudy 33 0.5 25 -4.1 72 72 N 12 19 30.00 1016 10 16 N/A
5:15 pm 17:15 Cloudy 33 0.5 25 -4.1 72 72 N 8 13 30.00 1016 10 16 N/A
5:35 pm 17:35 Cloudy 32 undefined 24 -4.4 73 73 N 5 7 30.03 1017 10 16 N/A
5:55 pm 17:55 Partly Cloudy 31 -0.7 24 -4.4 76 76 N 6 9 30.03 1017 10 16 N/A
6:15 pm 18:15 Mostly Cloudy 30 -1.3 25 -4.1 81 81 NNE 6 9 30.05 1018 10 16 N/A
6:35 pm 18:35 Mostly Cloudy 29 -1.7 24 -4.2 83 83 NNE 5 7 30.07 1018 10 16 N/A
6:55 pm 18:55 Cloudy 30 -1.3 25 -4 82 82 NNE 5 7 30.08 1019 10 16 N/A
7:15 pm 19:15 Cloudy 29 -1.4 24 -4.2 81 81 NE 3 6 30.09 1019 10 16 N/A
7:35 pm 19:35 Cloudy 28 -2 25 -4 86 86 NE 3 6 30.10 1019 10 16 N/A
7:55 pm 19:55 Cloudy 28 -2.2 25 -4.1 87 87 NE 5 7 30.11 1020 10 16 N/A
8:15 pm 20:15 Cloudy 28 -2.4 24 -4.5 86 86 NNE 5 7 30.12 1020 10 16 N/A
8:35 pm 20:35 Partly Cloudy 26 -3.1 23 -4.9 88 88 ENE 3 6 30.13 1020 10 16 N/A
8:55 pm 20:55 Clear 26 -3.2 24 -4.4 92 92 N N/A 30.13 1020 10 16 N/A
9:15 pm 21:15 Clear 27 -3 25 -4 93 93 N N/A 30.14 1021 10 16 N/A
9:35 pm 21:35 Clear 26 -3.4 23 -4.8 90 90 N N/A 30.14 1021 10 16 N/A
9:55 pm 21:55 Clear 24 -4.3 23 -5.2 94 94 N N/A 30.16 1021 10 16 N/A
10:15 pm 22:15 Clear 24 -4.5 22 -5.3 94 94 N N/A 30.17 1022 10 16 N/A
10:35 pm 22:35 Clear 23 -5 22 -5.6 96 96 N N/A 30.18 1022 10 16 N/A
10:55 pm 22:55 Clear 23 -4.9 22 -5.6 95 95 SW 5 7 30.19 1022 10 16 N/A
11:15 pm 23:15 Clear 23 -4.8 22 -5.8 93 93 SW 6 9 30.19 1022 10 16 N/A
11:35 pm 23:35 Clear 24 -4.7 22 -5.6 94 94 N N/A 30.18 1022 10 16 N/A
11:55 pm 23:55 Partly Cloudy 24 -4.6 22 -5.5 94 94 SW 3 6 30.18 1022 10 16 N/A

Powered by AerisWeather